Change the Weather History Date:

Thursday, March 15, 2012

  Actual Average (KPDC) Record (KPDC)
Temperature  
Mean Temperature 62 °F -  
Max Temperature 80 °F 45 °F 77 °F (2012)
Min Temperature 45 °F 24 °F 0 °F (1993)
Degree Days  
Heating Degree Days 2    
Growing Degree Days 12 (Base 50)    
Moisture  
Dew Point 49 °F    
Average Humidity 81    
Maximum Humidity 100    
Minimum Humidity 30    
Precipitation  
Precipitation 0.00 in - - ()
Sea Level Pressure  
Sea Level Pressure 29.94 in    
Wind  
Wind Speed 1 mph (SW)    
Max Wind Speed 5 mph    
Max Gust Speed -    
Visibility 5 miles    
Events Fog    
Averages and records for this station are not official NWS values.
T = Trace of Precipitation, MM = Missing Value Source: NWS Daily Summary

Daily Weather History Graph

Daily Weather History Graph

Search for Another Location

Airport or City:

Trip Planner

Search our weather history database for the weather conditions in past years. The results will help you decide how hot, cold, wet, or windy it might be!

Date:

Astronomy

Mar. 15, 2012 Rise Set
Actual Time 7:13 AM CDT 7:09 PM CDT
Civil Twilight 6:45 AM CDT 7:38 PM CDT
Nautical Twilight 6:12 AM CDT 8:11 PM CDT
Astronomical Twilight 5:38 AM CDT 8:44 PM CDT
Moon 2:51 AM CDT (3/15) 12:17 PM CDT (3/15)
Length of Visible Light 12h 52m
Length of Day
11h 55m
Last Quarter, 43% of the Moon is Illuminated
Mar 15
Last Quarter
Mar 22
New
Mar 30
First Quarter
Apr 6
Full
Apr 13
Last Quarter

Hourly Weather History & Observations

Time (CDT) Temp. Dew Point Humidity Pressure Visibility Wind Dir Wind Speed Gust Speed Precip Events Conditions
12:06 AM 53.6 °F 51.8 °F 94% 29.88 in 0.2 mi Calm Calm - N/A Fog Fog
12:26 AM 51.8 °F 51.8 °F 100% 29.89 in 1.2 mi Calm Calm - N/A   Mostly Cloudy
12:35 AM 51.8 °F 51.8 °F 100% 29.89 in 2.5 mi Calm Calm - N/A   Mostly Cloudy
12:44 AM 51.8 °F 51.8 °F 100% 29.89 in 4.0 mi Calm Calm - N/A   Mostly Cloudy
12:53 AM 52.0 °F 51.1 °F 97% 29.89 in 1.0 mi Calm Calm - N/A   Mostly Cloudy
1:04 AM 51.8 °F 50.0 °F 94% 29.89 in 2.0 mi Calm Calm - N/A   Scattered Clouds
1:16 AM 51.8 °F 48.2 °F 88% 29.89 in 0.8 mi Calm Calm - N/A   Mist
1:49 AM 50.0 °F 48.2 °F 94% 29.89 in 0.2 mi Calm Calm - N/A Fog Fog
1:53 AM 51.1 °F 48.9 °F 92% 29.89 in 0.2 mi Calm Calm - N/A Fog Fog
2:21 AM 48.2 °F 48.2 °F 100% 29.89 in 0.2 mi Calm Calm - N/A Fog Fog
2:53 AM 48.0 °F 46.9 °F 96% 29.89 in 0.2 mi Calm Calm - N/A Fog Fog
3:18 AM 46.4 °F 46.4 °F 100% 29.89 in 0.2 mi Calm Calm - N/A Fog Fog
3:53 AM 46.0 °F 45.0 °F 96% 29.90 in 0.2 mi Calm Calm - N/A Fog Fog
4:53 AM 45.0 °F 44.1 °F 97% 29.92 in 0.2 mi Calm Calm - N/A Fog Fog
5:53 AM 46.9 °F 46.0 °F 97% 29.94 in 0.2 mi Calm Calm - N/A Fog Fog
6:53 AM 46.9 °F 46.0 °F 97% 29.96 in 0.2 mi Calm Calm - N/A Fog Fog
7:53 AM 48.0 °F 46.9 °F 96% 29.97 in 0.2 mi Calm Calm - N/A Fog Fog
8:53 AM 50.0 °F 50.0 °F 100% 29.98 in 0.2 mi Calm Calm - N/A Fog Fog
9:53 AM 54.0 °F 54.0 °F 100% 29.99 in 0.2 mi SW 4.6 mph - N/A Fog Fog
10:26 AM 55.4 °F 55.4 °F 100% 29.98 in 1.2 mi SW 4.6 mph - N/A   Mostly Cloudy
10:29 AM 57.2 °F 55.4 °F 94% 29.98 in 4.0 mi SSW 3.5 mph - N/A   Mostly Cloudy
10:38 AM 57.2 °F 55.4 °F 94% 29.98 in 7.0 mi Calm Calm - N/A   Scattered Clouds
10:53 AM 62.1 °F 55.0 °F 78% 29.99 in 8.0 mi Variable 3.5 mph - N/A   Clear
11:53 AM 70.0 °F 55.0 °F 59% 29.98 in 10.0 mi Variable 4.6 mph - N/A   Clear
12:53 PM 73.0 °F 54.0 °F 51% 29.97 in 10.0 mi Calm Calm - N/A   Clear
1:53 PM 75.9 °F 52.0 °F 43% 29.96 in 10.0 mi Variable 3.5 mph - N/A   Clear
2:53 PM 79.0 °F 48.9 °F 35% 29.94 in 10.0 mi Calm Calm - N/A   Clear
3:53 PM 80.1 °F 46.0 °F 30% 29.94 in 10.0 mi Variable 3.5 mph - N/A   Clear
4:53 PM 80.1 °F 46.0 °F 30% 29.94 in 10.0 mi Variable 3.5 mph - N/A   Clear
5:53 PM 78.1 °F 46.0 °F 32% 29.94 in 10.0 mi SW 3.5 mph - N/A   Clear
6:53 PM 69.1 °F 46.0 °F 44% 29.95 in 10.0 mi Calm Calm - N/A   Clear
7:53 PM 60.1 °F 46.9 °F 62% 29.96 in 10.0 mi Calm Calm - N/A   Clear
8:53 PM 57.0 °F 46.0 °F 67% 29.99 in 10.0 mi Calm Calm - N/A   Clear
9:53 PM 54.0 °F 46.0 °F 75% 30.01 in 10.0 mi Calm Calm - N/A   Clear
10:53 PM 48.0 °F 44.1 °F 86% 30.01 in 10.0 mi Calm Calm - N/A   Clear
11:53 PM 46.9 °F 44.1 °F 90% 30.00 in 10.0 mi Calm Calm - N/A   Clear